Weather reports worldwide

Advertisment
Strbske Pleso, Slovakia (11933): temperature & dewpoint: 12.07.2019 07:00:00 - 18.07.2019 07:00:00 (CEST)Strbske Pleso, Slovakia (11933): wind speed: 12.07.2019 07:00:00 - 18.07.2019 07:00:00 (CEST)Strbske Pleso, Slovakia (11933): wind direction: 12.07.2019 07:00:00 - 18.07.2019 07:00:00 (CEST)Strbske Pleso, Slovakia (11933): visibility: 12.07.2019 07:00:00 - 18.07.2019 07:00:00 (CEST)
Date & Time tt [°C] td [°C] ff [km/h] ff [kn] dd vv [km]
18.07.2019 07:00:00 10,2 4,1 4 2 N -
18.07.2019 06:00:00 8,6 3,4 4 2 N -
18.07.2019 05:00:00 9,0 3,6 4 2 N -
18.07.2019 04:00:00 8,8 3,2 4 2 N -
18.07.2019 03:00:00 8,6 3,6 4 2 N -
18.07.2019 02:00:00 8,9 3,3 4 2 N -
18.07.2019 01:00:00 7,8 3,1 4 2 N -
18.07.2019 00:00:00 7,9 2,8 4 2 N -
17.07.2019 23:00:00 9,1 3,3 4 2 N -
17.07.2019 22:00:00 10,4 3,0 4 2 N 70
17.07.2019 21:00:00 10,9 2,7 4 2 N 75
17.07.2019 20:00:00 11,9 4,2 7 4 N 75
17.07.2019 19:00:00 13,7 4,0 7 4 N 75
17.07.2019 18:00:00 15,5 2,7 7 4 N 75
17.07.2019 17:00:00 16,5 2,9 7 4 N 75
17.07.2019 16:00:00 17,1 3,4 7 4 N 75
17.07.2019 15:00:00 15,7 2,2 7 4 N 75
17.07.2019 14:00:00 16,6 3,0 11 6 NW 75
17.07.2019 13:00:00 16,4 3,1 11 6 W 60
17.07.2019 12:00:00 16,0 3,8 7 4 N 60
17.07.2019 11:00:00 15,6 4,4 7 4 N 60
17.07.2019 10:00:00 14,6 5,4 7 4 N 60
17.07.2019 09:00:00 12,3 6,6 4 2 N 40
17.07.2019 08:00:00 9,9 4,1 4 2 N 40
17.07.2019 07:00:00 6,3 4,3 4 2 N -
17.07.2019 06:00:00 5,2 3,7 4 2 N -
17.07.2019 05:00:00 4,5 2,7 0 0 N -
17.07.2019 04:00:00 5,0 3,5 4 2 N -
17.07.2019 03:00:00 6,1 3,9 0 0 N -
17.07.2019 02:00:00 8,6 3,4 4 2 N -
17.07.2019 01:00:00 9,5 2,6 7 4 N -
17.07.2019 00:00:00 9,4 3,2 4 2 N -
16.07.2019 23:00:00 10,3 3,4 4 2 N -
16.07.2019 22:00:00 11,0 3,3 4 2 N 50
16.07.2019 21:00:00 12,0 3,5 4 2 N 50
16.07.2019 20:00:00 12,6 5,0 7 4 N 55
16.07.2019 19:00:00 14,3 5,1 7 4 N 55
16.07.2019 18:00:00 14,7 6,5 7 4 N 55
16.07.2019 17:00:00 16,9 5,2 11 6 W 55
16.07.2019 16:00:00 16,5 6,4 11 6 WNW 55
16.07.2019 15:00:00 17,0 6,5 7 4 N 55
16.07.2019 14:00:00 15,8 5,7 7 4 N 55
16.07.2019 13:00:00 16,4 7,1 7 4 N 50
16.07.2019 12:00:00 17,3 7,4 7 4 N 50
16.07.2019 11:00:00 15,2 7,0 4 2 N 50
16.07.2019 10:00:00 15,3 6,8 7 4 N 55
16.07.2019 09:00:00 13,7 6,1 4 2 N 55
16.07.2019 08:00:00 11,3 5,0 4 2 N 50
16.07.2019 07:00:00 8,4 3,4 0 0 N -
16.07.2019 06:00:00 6,9 3,0 4 2 N -
16.07.2019 05:00:00 7,1 2,4 4 2 N -
16.07.2019 04:00:00 7,1 2,0 4 2 N -
16.07.2019 03:00:00 7,7 2,0 4 2 N -
16.07.2019 02:00:00 7,9 0,8 4 2 N -
16.07.2019 01:00:00 9,1 0,3 7 4 N -
16.07.2019 00:00:00 9,3 0,2 4 2 N -
15.07.2019 23:00:00 10,0 0,6 7 4 NNE -
15.07.2019 22:00:00 10,5 0,5 7 4 NE 60
15.07.2019 21:00:00 10,9 0,3 11 6 NE 75
15.07.2019 20:00:00 11,7 0,2 11 6 NNE 75
15.07.2019 19:00:00 12,8 0,2 11 6 NNE 75
15.07.2019 18:00:00 14,3 -0,2 7 4 N 75
15.07.2019 17:00:00 15,0 0,4 11 6 NNE 75
15.07.2019 16:00:00 15,1 1,3 11 6 NE 75
15.07.2019 15:00:00 14,2 2,8 4 2 N 75
15.07.2019 14:00:00 14,4 1,0 4 2 N 75
15.07.2019 13:00:00 14,0 2,9 4 2 N 75
15.07.2019 12:00:00 14,9 0,0 7 4 N 75
15.07.2019 11:00:00 14,9 -1,6 7 4 N 75
15.07.2019 10:00:00 13,3 -0,7 11 6 NNE 75
15.07.2019 09:00:00 12,5 0,0 4 2 N 75
15.07.2019 08:00:00 11,4 0,8 7 4 N 75
15.07.2019 07:00:00 9,3 0,2 4 2 N -
15.07.2019 06:00:00 8,2 0,4 7 4 N -
15.07.2019 05:00:00 8,6 0,6 7 4 N -
15.07.2019 04:00:00 8,8 1,0 7 4 N -
15.07.2019 03:00:00 8,8 1,2 7 4 NE -
15.07.2019 02:00:00 8,5 1,0 7 4 N -
15.07.2019 01:00:00 8,2 2,4 4 2 N -
15.07.2019 00:00:00 9,0 1,9 7 4 N -
14.07.2019 23:00:00 7,6 4,0 4 2 N -
14.07.2019 22:00:00 7,6 4,7 4 2 N 60
14.07.2019 21:00:00 8,5 5,2 4 2 N 70
14.07.2019 20:00:00 10,3 4,4 7 4 NE 75
14.07.2019 19:00:00 11,1 3,6 11 6 NE 75
14.07.2019 18:00:00 12,2 4,2 11 6 NE 75
14.07.2019 17:00:00 12,3 4,3 11 6 N 70
14.07.2019 16:00:00 11,3 5,6 7 4 N 12
14.07.2019 15:00:00 10,9 8,8 4 2 N 15
14.07.2019 14:00:00 12,9 9,5 4 2 N 45
14.07.2019 13:00:00 13,8 9,2 4 2 N 4,5
14.07.2019 12:00:00 12,2 9,8 4 2 N 4,5
14.07.2019 11:00:00 10,2 7,4 7 4 NE 1,5
14.07.2019 10:00:00 9,7 9,1 0 0 N 0,9
14.07.2019 09:00:00 9,3 8,8 4 2 N 0,1
14.07.2019 08:00:00 9,1 8,5 4 2 N 0,7
14.07.2019 07:00:00 9,2 8,6 0 0 N -
14.07.2019 06:00:00 8,9 8,3 0 0 N -
14.07.2019 05:00:00 8,9 8,1 0 0 N -
14.07.2019 04:00:00 8,7 8,1 0 0 N -
14.07.2019 03:00:00 8,1 7,5 0 0 N -
14.07.2019 02:00:00 7,8 6,9 4 2 N -
14.07.2019 01:00:00 8,2 7,3 4 2 N -
14.07.2019 00:00:00 8,6 7,7 4 2 N -
13.07.2019 23:00:00 8,5 7,7 4 2 N -
13.07.2019 22:00:00 9,1 8,2 4 2 N 1,3
13.07.2019 21:00:00 10,2 7,4 4 2 N 4,5
13.07.2019 20:00:00 11,2 9,4 4 2 N 35
13.07.2019 19:00:00 11,2 8,6 4 2 N 15
13.07.2019 18:00:00 10,9 9,3 4 2 N 1,5
13.07.2019 17:00:00 11,6 8,6 4 2 N 12
13.07.2019 16:00:00 11,6 8,4 7 4 N 12
13.07.2019 15:00:00 12,9 9,9 7 4 N 10
13.07.2019 14:00:00 13,8 9,4 7 4 N 20
13.07.2019 13:00:00 13,8 8,6 7 4 N 45
13.07.2019 12:00:00 13,7 8,1 4 2 N 50
13.07.2019 11:00:00 14,2 6,8 4 2 N 50
13.07.2019 10:00:00 12,3 8,0 4 2 N 50
13.07.2019 09:00:00 12,0 5,9 4 2 N 50
13.07.2019 08:00:00 10,6 7,5 0 0 N 50
13.07.2019 07:00:00 10,1 7,0 4 2 N -
13.07.2019 06:00:00 9,0 6,1 4 2 N -
13.07.2019 05:00:00 8,5 5,6 4 2 N -
13.07.2019 04:00:00 8,6 5,2 4 2 N -
13.07.2019 03:00:00 9,1 4,9 4 2 N -
13.07.2019 02:00:00 9,8 4,8 4 2 N -
13.07.2019 01:00:00 10,0 4,8 4 2 N -
13.07.2019 00:00:00 10,4 5,0 4 2 N -
12.07.2019 23:00:00 10,5 4,8 4 2 N -
12.07.2019 22:00:00 10,9 5,2 4 2 N 75
12.07.2019 21:00:00 10,9 5,4 4 2 N 75
12.07.2019 20:00:00 11,1 6,2 4 2 N 75
12.07.2019 19:00:00 12,0 6,9 4 2 N 75
12.07.2019 18:00:00 12,8 6,8 0 0 N 75
12.07.2019 17:00:00 13,4 6,3 4 2 N 75
12.07.2019 16:00:00 14,9 4,6 7 4 N 75
12.07.2019 15:00:00 14,3 4,6 7 4 N 75
12.07.2019 14:00:00 14,7 3,5 4 2 N 75
12.07.2019 13:00:00 14,9 4,3 4 2 N 75
12.07.2019 12:00:00 14,4 4,7 7 4 N 75
12.07.2019 11:00:00 13,4 4,6 4 2 N 75
12.07.2019 10:00:00 13,3 5,7 4 2 N 75
12.07.2019 09:00:00 12,6 5,8 4 2 N 75
12.07.2019 08:00:00 10,2 4,4 4 2 N 75
12.07.2019 07:00:00 5,8 3,3 0 0 N -

tt = temperature
td = dewpoint
ff = wind speed
dd = wind direction
vv = visibility

Next stations